Location: Freistadt
(48.5112°N, 14.5013°E)
Time: 09:29:26
(UTC+02:00)

MOZHAYETS 4 - Pass Details

Date: 07 April 2023
Orbit: 657 x 675 km, 98.2° (Epoch: 03 June)

Event Time Altitude Azimuth Distance (km) Brightness Sun altitude
Exits shadow 04:46:40 21° 281° (W) 1,495 9.1 -16.5°
Drops below altitude 10° 04:49:28 10° 318° (NW) 2,092 10.2 -16.1°
Sets 04:52:11 0° 334° (NNW) 3,014 11.1 -15.7°
